274  
ASUS43 KGLD 230408  
RWRGLD  
 
GOODLAND FORECAST AREA HOURLY WEATHER ROUNDUP  
NATIONAL WEATHER SERVICE GOODLAND KS  
1000 PM MDT SAT JUL 22 2017  
   
..OFFICIAL OBSERVATIONS
 
 
 
CITY SKY/WX TMP DP RH WIND PRES REMARKS
 
GOODLAND KS CLEAR 68 54 60 CALM 30.10R  
HILL CITY KS PTCLDY 74 70 87 CALM 30.00R  
IMPERIAL NEB CLEAR 69 54 58 S6 30.09R  
MCCOOK NEB PTCLDY 70 60 70 N6 30.03S  
AKRON CO CLEAR 70 54 56 SE10 30.17R  
BURLINGTON CO CLEAR 68 51 54 CALM 30.15R  
LIMON CO CLOUDY 63 57 81 SE3 30.23R  

 
   
..UNOFFICIAL OBSERVATIONS
 
 
 
CITY SKY/WX TMP DP RH WIND PRES REMARKS
 
LENORA KS N/A 73 32 22 MISG N/A  
NORTON KS CLEAR 73 66 78 N6 30.00  
SHARON SPRINGS N/A 67 54 63 CALM N/A  
TRENTON NEB N/A 73 32 22 CALM N/A  
KIT CARSON CO N/A 66 49 55 CALM N/A  
YUMA CO FAIR 63 54 72 S6 30.13F  

 
 
 
CLICK HERE TO GO TO PREVIOUS BULLETINS.

The Nexlab KS Page
The Nexlab CO Page
The Nexlab NE Page Main Text Page